This is the latest recevied weather packets stored in our database for station/object N7ZAP. If no packets are shown the sender has not sent any weather packets the latest 10 day(s).
| Time | Temp. | Humidity | Pressure | Rain* | Wind** | Luminosity | Snow |
|---|---|---|---|---|---|---|---|
| 1788630138 | 32.22° C | 27% | 1022.3 hPa | 0 mm | - | - | - |
| 1788629834 | 32.22° C | 28% | 1022 hPa | 0 mm | - | - | - |
| 1788629558 | 32.22° C | 26% | 1022 hPa | 0 mm | - | - | - |
| 1788629229 | 31.67° C | 28% | 1022.1 hPa | 0 mm | - | - | - |
| 1788628929 | 31.67° C | 27% | 1022.3 hPa | 0 mm | - | - | - |
| 1788628625 | 31.67° C | 29% | 1022.1 hPa | 0 mm | - | - | - |
| 1788628320 | 31.67° C | 28% | 1022.3 hPa | 0 mm | - | - | - |
| 1788628018 | 31.67° C | 30% | 1022.1 hPa | 0 mm | - | - | - |
| 1788627712 | 30.56° C | 32% | 1022.1 hPa | 0 mm | - | - | - |
| 1788627412 | 30° C | 33% | 1022.1 hPa | 0 mm | - | - | - |
| 1788627107 | 31.11° C | 33% | 1022.1 hPa | 0 mm | - | - | - |
| 1788626802 | 31.11° C | 33% | 1022.4 hPa | 0 mm | - | - | - |
| 1788626501 | 30.56° C | 34% | 1022.3 hPa | 0 mm | - | - | - |
| 1788626197 | 30.56° C | 34% | 1022.4 hPa | 0 mm | - | - | - |
| 1788625894 | 30° C | 36% | 1022.4 hPa | 0 mm | - | - | - |
| 1788625590 | 30° C | 34% | 1022.4 hPa | 0 mm | - | - | - |
| 1788625289 | 30° C | 36% | 1022.5 hPa | 0 mm | - | - | - |
| 1788624989 | 30° C | 37% | 1022.4 hPa | 0 mm | - | - | - |
| 1788624686 | 29.44° C | 36% | 1022.7 hPa | 0 mm | - | - | - |
| 1788624381 | 28.89° C | 37% | 1022.5 hPa | 0 mm | - | - | - |
| 1788624081 | 28.33° C | 39% | 1022.4 hPa | 0 mm | - | - | - |
| 1788623781 | 28.33° C | 39% | 1022.5 hPa | 0 mm | - | - | - |
| 1788623479 | 28.33° C | 40% | 1022.5 hPa | 0 mm | - | - | - |
| 1788623174 | 28.33° C | 41% | 1022.3 hPa | 0 mm | - | - | - |
| 1788622870 | 27.78° C | 40% | 1022.5 hPa | 0 mm | - | - | - |
* Rain latest hour (hover to see other rain measurements)
** Current wind speed in m/s (hover to see current wind gust speed)